DECAYED

FENGYUN 1C DEB, 31366 (Decayed)

Orbit data source: Space-Track

FENGYUN 1C DEB, 31366 was space debris in SSO originally from a launch on Mon, 10 May 1999 UTC launched from the Taiyaun Space Center, China (TSC). Fengyun 1C debris stems from the Chinese weather satellite Fengyun-1C, which was intentionally destroyed by a Chinese anti-satellite missile in 2007. This event dramatically increased the amount of space debris, with thousands of trackable fragments posing hazards to satellites and human spaceflight. The Fengyun 1C debris cloud has become a focal point in discussions about space sustainability and the need for international regulations to prevent the creation of new debris.

Not visible in the next 10 days
FENGYUN 1C DEB details
Identifier
31366, 1999-025BRW
Orbit
Decayed
Last TLE update3 weeks ago
Origin
Flag of CNCASC (CN / PRC)
ManufacturerUnknown
MissionDecayed spacecraft
Bus & MotorUnknown
MassUnknown
Launch date (UTC)
1999-05-10 (26 years ago)
Launch vehicleUnknown
Launch site
Taiyaun Space Center, China (TSC)
Object type
Payload
Rocket body
Debris
Shape & HBRUnknown
Radar Cross SectionSmall (<0.1 m²)

Expand to show TLE details & history

TLE from 3 weeks ago
0 FENGYUN 1C DEB
1 31366U 99025BRW 25003.99660725  .07682742  00000-0  34229-1 0  9995
2 31366  98.8133 202.5519 0016165 357.4728   2.6451 15.79739596923375
Epoch: 2025-01-03T23:55Z
Definitive object data (Epoch: 2025-01-03T23:55:06.866Z)
Latitude0.00004°
Longitude99.92012°
Altitude323.467 km
Speed7.72 km/s
True Right ascension13h 30m 12s
True Declination0° 00' 00"
Sunlit
Object was in daylight at TLE epoch
Visualization TLE readout
Latitude57.2516°
Longitude119.43193°
Altitude10,188,694.57 km
Speed0.198 km/s
Apparent Right ascension14h 48m 03s
Apparent Declination57° 14' 37"
Sunlit
Object is in daylight
Visualization observer readout
Local Sidereal Time20:03:17
Azimuth317.42° NNW
Elevation38.329°
Doppler factor1
Orbital elements
Apogee altitude338.973 km
Perigee altitude317.291 km
Semi-major axis6,706.269 km
Eccentricity0.0016165
Inclination98.8133°
RAAN202.5519°
Arg. of periapsis357.4728°
True anomaly2.65367°
Mean anomaly2.6451°
Eccentric anomaly2.64938°
Mean motion3.95204 °/min
BSTAR0.034229
Orbital period91.09 mins
Loading maneuver chart data...
Loading historical data...
Loading historical data...
Loading historical data...
Loading historical data...
Loading historical data...
Loading historical data...
Loading historical data...

FENGYUN 1C DEB Visibility forecast

Observer location: undefined°, undefined

This satellite is decayed
Span
Click to sort rows by Start time (UTC) header in descending order
Start Az.
Max El. time (UTC)
Max El. Az.
Max El.
End time (UTC)
End Az.
|